TimeEDT,TemperatureF,Dew PointF,Humidity,Sea Level PressureIn,VisibilityMPH,Wind Direction,Wind SpeedMPH,Gust SpeedMPH,PrecipitationIn,Events,Conditions,WindDirDegrees,DateUTC
12:15 AM,53.6,53.6,100,30.16,10.0,East,3.5,-,N/A,,Clear,100,2013-03-11 04:15:00
12:35 AM,53.6,53.6,100,30.16,10.0,East,3.5,-,N/A,,Clear,90,2013-03-11 04:35:00
12:55 AM,51.8,51.8,100,30.16,10.0,East,3.5,-,N/A,,Clear,90,2013-03-11 04:55:00
1:15 AM,51.8,51.8,100,30.15,10.0,East,3.5,-,N/A,,Clear,80,2013-03-11 05:15:00
1:35 AM,51.8,51.8,100,30.13,10.0,Calm,Calm,-,N/A,,Clear,0,2013-03-11 05:35:00
1:55 AM,51.8,51.8,100,30.14,10.0,Calm,Calm,-,N/A,,Clear,0,2013-03-11 05:55:00
2:15 AM,50.0,50.0,100,30.14,10.0,Calm,Calm,-,N/A,,Clear,0,2013-03-11 06:15:00
2:35 AM,50.0,50.0,100,30.13,1.0,Calm,Calm,-,N/A,,Mist,0,2013-03-11 06:35:00
2:55 AM,50.0,50.0,100,30.13,5.0,Calm,Calm,-,N/A,,Clear,0,2013-03-11 06:55:00
3:15 AM,46.4,46.4,100,30.12,10.0,Calm,Calm,-,N/A,,Clear,0,2013-03-11 07:15:00
3:35 AM,46.4,46.4,100,30.11,10.0,Calm,Calm,-,N/A,,Clear,0,2013-03-11 07:35:00
3:55 AM,46.4,46.4,100,30.10,7.0,Calm,Calm,-,N/A,,Scattered Clouds,0,2013-03-11 07:55:00
4:15 AM,46.4,46.4,100,30.09,10.0,Calm,Calm,-,N/A,,Scattered Clouds,0,2013-03-11 08:15:00
4:35 AM,46.4,46.4,100,30.09,10.0,NE,3.5,-,N/A,,Clear,40,2013-03-11 08:35:00
4:55 AM,46.4,46.4,100,30.08,10.0,Calm,Calm,-,N/A,,Clear,0,2013-03-11 08:55:00
5:15 AM,46.4,46.4,100,30.08,10.0,ENE,3.5,-,N/A,,Clear,70,2013-03-11 09:15:00
5:35 AM,46.4,46.4,100,30.08,4.0,Calm,Calm,-,N/A,,Clear,0,2013-03-11 09:35:00
5:55 AM,48.2,48.2,100,30.08,10.0,Calm,Calm,-,N/A,,Clear,0,2013-03-11 09:55:00
6:35 AM,46.4,46.4,100,30.07,10.0,ENE,3.5,-,N/A,,Clear,70,2013-03-11 10:35:00
6:55 AM,46.4,46.4,100,30.07,2.5,East,3.5,-,N/A,,Clear,80,2013-03-11 10:55:00
7:15 AM,46.4,46.4,100,30.07,10.0,Calm,Calm,-,N/A,,Clear,0,2013-03-11 11:15:00
7:35 AM,46.4,46.4,100,30.07,10.0,Calm,Calm,-,N/A,,Clear,0,2013-03-11 11:35:00
7:55 AM,46.4,46.4,100,30.08,10.0,Calm,Calm,-,N/A,,Clear,0,2013-03-11 11:55:00
8:15 AM,48.2,48.2,100,30.08,4.0,Calm,Calm,-,N/A,,Clear,0,2013-03-11 12:15:00
8:35 AM,50.0,50.0,100,30.08,10.0,Calm,Calm,-,N/A,,Clear,0,2013-03-11 12:35:00
8:55 AM,51.8,51.8,100,30.08,10.0,Calm,Calm,-,N/A,,Clear,0,2013-03-11 12:55:00
9:15 AM,55.4,55.4,100,30.08,10.0,Calm,Calm,-,N/A,,Clear,0,2013-03-11 13:15:00
9:35 AM,59.0,57.2,94,30.09,10.0,Calm,Calm,-,N/A,,Scattered Clouds,0,2013-03-11 13:35:00
9:55 AM,60.8,59.0,94,30.09,10.0,Calm,Calm,-,N/A,,Overcast,0,2013-03-11 13:55:00
10:15 AM,62.6,59.0,88,30.10,10.0,Calm,Calm,-,N/A,,Mostly Cloudy,0,2013-03-11 14:15:00
10:55 AM,68.0,59.0,73,30.09,10.0,SSW,6.9,-,N/A,,Scattered Clouds,200,2013-03-11 14:55:00
11:15 AM,68.0,59.0,73,30.09,10.0,SSW,8.1,-,N/A,,Clear,200,2013-03-11 15:15:00
11:35 AM,69.8,57.2,64,30.09,10.0,SSW,13.8,17.3,N/A,,Scattered Clouds,200,2013-03-11 15:35:00
11:55 AM,69.8,59.0,68,30.08,10.0,South,9.2,-,N/A,,Mostly Cloudy,170,2013-03-11 15:55:00
12:15 PM,69.8,59.0,68,30.07,10.0,South,9.2,16.1,N/A,,Overcast,190,2013-03-11 16:15:00
12:35 PM,69.8,59.0,68,30.06,10.0,SSW,9.2,-,N/A,,Mostly Cloudy,200,2013-03-11 16:35:00
12:55 PM,71.6,57.2,60,30.07,10.0,SW,6.9,16.1,N/A,,Overcast,220,2013-03-11 16:55:00
1:15 PM,71.6,57.2,60,30.05,10.0,SSW,8.1,-,N/A,,Overcast,200,2013-03-11 17:15:00
1:35 PM,71.6,57.2,60,30.04,10.0,SW,9.2,-,N/A,,Mostly Cloudy,220,2013-03-11 17:35:00
1:55 PM,71.6,57.2,60,30.02,10.0,SW,8.1,-,N/A,,Mostly Cloudy,230,2013-03-11 17:55:00
2:15 PM,71.6,55.4,57,30.01,10.0,SSW,9.2,-,N/A,,Mostly Cloudy,210,2013-03-11 18:15:00
2:35 PM,73.4,57.2,57,29.99,10.0,SSW,8.1,-,N/A,,Scattered Clouds,210,2013-03-11 18:35:00
2:55 PM,73.4,55.4,53,29.98,10.0,SW,9.2,19.6,N/A,,Scattered Clouds,220,2013-03-11 18:55:00
3:15 PM,73.4,55.4,53,29.97,10.0,SSW,10.4,-,N/A,,Scattered Clouds,200,2013-03-11 19:15:00
3:35 PM,73.4,57.2,57,29.96,10.0,South,9.2,17.3,N/A,,Mostly Cloudy,180,2013-03-11 19:35:00
3:55 PM,73.4,57.2,57,29.96,10.0,SW,11.5,16.1,N/A,,Mostly Cloudy,220,2013-03-11 19:55:00
4:15 PM,75.2,57.2,53,29.94,10.0,SSE,11.5,-,N/A,,Mostly Cloudy,160,2013-03-11 20:15:00
4:35 PM,73.4,59.0,61,29.95,10.0,SE,10.4,20.7,N/A,,Mostly Cloudy,130,2013-03-11 20:35:00
4:55 PM,71.6,59.0,64,29.94,10.0,SE,10.4,-,N/A,,Mostly Cloudy,140,2013-03-11 20:55:00
5:15 PM,71.6,59.0,64,29.94,10.0,SE,10.4,-,N/A,,Overcast,140,2013-03-11 21:15:00
5:35 PM,71.6,59.0,64,29.93,10.0,SE,6.9,-,N/A,,Overcast,140,2013-03-11 21:35:00
5:55 PM,71.6,59.0,64,29.92,10.0,SE,6.9,-,N/A,,Scattered Clouds,140,2013-03-11 21:55:00
6:15 PM,71.6,59.0,64,29.92,10.0,SE,8.1,-,N/A,,Scattered Clouds,140,2013-03-11 22:15:00
6:35 PM,69.8,59.0,68,29.92,10.0,SE,6.9,-,N/A,,Clear,140,2013-03-11 22:35:00
6:55 PM,69.8,59.0,68,29.91,10.0,SSE,6.9,-,N/A,,Clear,150,2013-03-11 22:55:00
7:15 PM,68.0,59.0,73,29.91,10.0,SSE,6.9,-,N/A,,Clear,150,2013-03-11 23:15:00
7:35 PM,68.0,59.0,73,29.91,10.0,SSE,6.9,-,N/A,,Clear,160,2013-03-11 23:35:00
7:55 PM,68.0,59.0,73,29.90,10.0,SSE,6.9,-,N/A,,Clear,150,2013-03-11 23:55:00
8:15 PM,68.0,59.0,73,29.91,10.0,SSE,6.9,-,N/A,,Clear,160,2013-03-12 00:15:00
8:35 PM,68.0,59.0,73,29.91,10.0,SSE,4.6,-,N/A,,Clear,160,2013-03-12 00:35:00
8:55 PM,66.2,59.0,78,29.90,10.0,SSE,6.9,-,N/A,,Scattered Clouds,160,2013-03-12 00:55:00
9:15 PM,66.2,59.0,78,29.90,10.0,SSE,9.2,-,N/A,,Scattered Clouds,160,2013-03-12 01:15:00
9:35 PM,66.2,59.0,78,29.90,10.0,South,9.2,-,N/A,,Clear,180,2013-03-12 01:35:00
9:55 PM,66.2,59.0,78,29.91,10.0,South,9.2,-,N/A,,Clear,170,2013-03-12 01:55:00
10:15 PM,66.2,59.0,78,29.91,10.0,South,5.8,-,N/A,,Scattered Clouds,170,2013-03-12 02:15:00
10:35 PM,66.2,59.0,78,29.92,10.0,South,5.8,-,N/A,,Scattered Clouds,180,2013-03-12 02:35:00
10:55 PM,66.2,59.0,78,29.91,10.0,South,6.9,-,N/A,,Scattered Clouds,180,2013-03-12 02:55:00
11:15 PM,66.2,59.0,78,29.90,10.0,South,8.1,-,N/A,Rain,Light Rain,180,2013-03-12 03:15:00
11:55 PM,66.2,59.0,78,29.88,10.0,South,8.1,-,N/A,,Scattered Clouds,180,2013-03-12 03:55:00